Вернуться в каталог

STARLINK-11717

АктивенСвязьVLEO
NORAD 64126·PAYLOAD·🇺🇸 United States

Запущен May 24, 2025 с Cape Canaveral Space Force Station

Loading…

Ближайшие Пролёты (ближайшие 24 часа)

TLE

СвежийSource: CelesTrak SupGP

Эпоха: Sep 15, 2026, 03:45 UTC

1 64126C 25111D   26258.15673611 -.00015689  00000+0 -12177-3 0  2581
2 64126  43.0002 271.9728 0001386 259.9952 166.6348 15.70864895    13

Отслеживайте STARLINK-11717 в реальном времени с AllMySat

Download on the App Store